Time,TemperatureF,DewpointF,PressureIn,WindDirection,WindDirectionDegrees,WindSpeedMPH,WindSpeedGustMPH,Humidity,HourlyPrecipIn,Conditions,Clouds,dailyrainin,SoftwareType,DateUTC
2013-08-18 16:22:00,80.0,77.0,30.04,NE,56,0.0,4.0,91,0.01,,,0.02,,2013-08-18 20:22:00,
2013-08-18 16:52:00,79.0,76.0,30.03,ENE,61,2.0,5.0,91,0.01,,,0.02,,2013-08-18 20:52:00,
2013-08-18 17:11:00,79.0,76.0,30.02,NE,38,2.0,10.0,90,0.01,,,0.02,,2013-08-18 21:11:00,
2013-08-18 17:22:00,78.0,74.0,30.02,ENE,59,2.0,8.0,89,0.00,,,0.02,,2013-08-18 21:22:00,
2013-08-18 17:53:00,79.0,76.0,30.02,NNE,22,2.0,4.0,90,0.00,,,0.02,,2013-08-18 21:53:00,
2013-08-18 18:13:00,79.0,76.0,30.02,NNW,337,1.0,6.0,90,0.00,,,0.02,,2013-08-18 22:13:00,
2013-08-18 18:23:00,79.0,75.0,30.03,NE,53,1.0,5.0,89,0.00,,,0.02,,2013-08-18 22:23:00,
2013-08-18 18:42:00,79.0,74.0,30.05,SSW,213,1.0,7.0,86,0.00,,,0.02,,2013-08-18 22:42:00,
2013-08-18 18:52:00,78.0,74.0,30.06,SW,235,2.0,10.0,88,0.00,,,0.02,,2013-08-18 22:52:00,
2013-08-18 19:11:00,77.0,74.0,30.05,West,264,3.0,7.0,91,0.00,,,0.02,,2013-08-18 23:11:00,
2013-08-18 19:22:00,76.0,74.0,30.05,WNW,293,1.0,5.0,92,0.00,,,0.02,,2013-08-18 23:22:00,
2013-08-18 19:42:00,76.0,73.0,30.06,WSW,249,1.0,6.0,91,0.00,,,0.02,,2013-08-18 23:42:00,
2013-08-18 19:52:00,75.0,73.0,30.07,NE,55,0.0,6.0,93,0.26,,,0.28,,2013-08-18 23:52:00,
2013-08-18 20:12:00,74.0,73.0,30.07,WNW,296,3.0,6.0,96,0.34,,,0.36,,2013-08-19 00:12:00,
2013-08-18 20:21:00,74.0,73.0,30.06,WNW,292,1.0,4.0,96,0.34,,,0.36,,2013-08-19 00:21:00,
2013-08-18 20:42:00,74.0,73.0,30.06,NW,315,2.0,7.0,97,0.34,,,0.36,,2013-08-19 00:42:00,
2013-08-18 20:52:00,74.0,73.0,30.07,NNW,333,1.0,5.0,97,0.07,,,0.36,,2013-08-19 00:52:00,
2013-08-18 21:12:00,74.0,73.0,30.07,West,276,2.0,4.0,97,0.00,,,0.36,,2013-08-19 01:12:00,
2013-08-18 21:22:00,74.0,73.0,30.07,WNW,298,0.0,3.0,97,0.00,,,0.36,,2013-08-19 01:22:00,
2013-08-18 21:42:00,74.0,73.0,30.09,WNW,298,1.0,3.0,97,0.00,,,0.36,,2013-08-19 01:42:00,
2013-08-18 21:52:00,74.0,73.0,30.09,WNW,298,0.0,0.0,97,0.00,,,0.36,,2013-08-19 01:52:00,
2013-08-18 22:11:00,74.0,73.0,30.09,WNW,298,0.0,0.0,98,0.00,,,0.36,,2013-08-19 02:11:00,
2013-08-18 22:22:00,74.0,73.0,30.10,NW,315,0.0,5.0,98,0.01,,,0.37,,2013-08-19 02:22:00,
2013-08-18 22:42:00,74.0,73.0,30.11,NW,315,0.0,2.0,98,0.01,,,0.37,,2013-08-19 02:42:00,
2013-08-18 22:52:00,74.0,73.0,30.12,SSW,192,1.0,3.0,98,0.01,,,0.37,,2013-08-19 02:52:00,
2013-08-18 23:11:00,74.0,73.0,30.12,ESE,116,0.0,3.0,98,0.01,,,0.37,,2013-08-19 03:11:00,
2013-08-18 23:21:00,74.0,73.0,30.12,NNE,33,1.0,3.0,98,0.00,,,0.37,,2013-08-19 03:21:00,
2013-08-18 23:42:00,74.0,73.0,30.11,NE,34,0.0,3.0,98,0.00,,,0.37,,2013-08-19 03:42:00,
2013-08-18 23:53:00,74.0,73.0,30.12,ENE,76,1.0,4.0,98,0.00,,,0.37,,2013-08-19 03:53:00,